Location: Lac de la Montagne noire
(46.1952°N, 74.2701°W)
Time: 05:45:00
(UTC-04:00)

Envisat - Pass Details

Date: 22 March 2019
Orbit: 764 x 766 km, 98.2° (Epoch: 24 April)

Event Time Altitude Azimuth Distance (km) Brightness Sun altitude
Rises 19:38:08 0° 171° (S) 3,219 6.1 -5.3°
Reaches altitude 10° 19:40:26 10° 174° (S) 2,297 5.3 -5.7°
Maximum altitude 19:45:29 70° 258° (WSW) 818 3.4 -6.6°
Drops below altitude 10° 19:50:35 10° 342° (NNW) 2,314 5.9 -7.4°
Sets 19:52:55 0° 345° (NNW) 3,244 6.6 -7.8°
